Погода в Риу-Бранку

Бразилия     9°58′10″S   67°49′31″W
темп.,
°C
ветер,
м/с
пор.,
м/с
влажн.,
%
обл.,
%
осадки,
мм/ч
давл.,
гПа
погр.,
м
9 мая, вс
вс901:00+18ююв22815 0.0 101526
04:00+17ююв228550 0.0 101546
07:00+19юв24813 0.0 1017165
10:00+25юв23625 0.0 1018651
13:00+28юв125768 0.0 1014947
16:00+27всв11745 0.0 1012209
19:00+23ссв11765 0.0 101311
22:00+22юв11765 0.0 101411
10 мая, пн
пн1001:00+21ю11813 0.0 101311
04:00+20ююз12845 0.0 101322
07:00+22ююв13815 0.0 1015127
10:00+28юв23635 0.0 1016622
13:00+30вюв12576 0.0 10121043
16:00+29юз017457 0.0 1010180
19:00+26св117499 0.0 101219
22:00+25ссв2278100 0.0 101458
11 мая, вт
вт1101:00+22ссв1191100 0.0 101328
04:00+21вюв019465 0.0 101311
07:00+23вюв019455 0.9 1015101
10:00+26юв1279100 0.0 1015493
13:00+26ссв2392100 3.8 1012234
16:00+25сз1292100 1.1 1010158
19:00+22ссз22978 1.4 101250
22:00+22ююв119790 0.7 101311
12 мая, ср
ср1201:00+21сз119895 2.3 101322
04:00+21з0098100 1.5 101312
07:00+22в129895 3.7 101595
10:00+26всв128628 0.8 1016452
13:00+29в137114 3.1 10121043
16:00+26юв24925 2.8 1011179
19:00+23юз11957 3.2 101311
22:00+22юв119798 1.2 101517
13 мая, чт
чт1301:00+22ююв2799100 3.1 1014228
04:00+21ююв299997 0.4 1014332
07:00+21ююв289799 0.8 1016423
10:00+23юв3679100 0.0 1017526
13:00+26юв33709 0.0 1014751
16:00+25юв247983 0.0 1011423
19:00+22юв2385100 0.0 101262
22:00+22юв1184100 0.0 101413